Location: Sarayc?k
(36.6500°N, 30.3667°E)
Time: 10:51:01
(UTC+00:00)

Daily predictions for brighter satellites

Satellite Brightness Start Highest point End
(mag) Time Altitude Azimuth Time Altitude Azimuth Time Altitude Azimuth
Cosmos 2278 Rocket 3.6 17:27:01 10° NW 17:32:16 40° WSW 17:37:28 10° S
CZ-4B R/B 3.3 17:27:19 10° SSE 17:32:32 59° ENE 17:37:44 10° N
Cosmos 1464 Rocket 4.1 17:28:15 10° N 17:34:26 61° E 17:40:31 10° SSE
USA 290 2.5 17:33:06 10° N 17:36:14 48° ENE 17:39:20 10° SE
Cosmos 1515 3.8 17:40:28 10° SSW 17:43:56 71° W 17:47:24 10° N
Cosmos 2056 Rocket 4.2 17:38:58 10° N 17:44:00 40° ENE 17:48:57 10° SE
Cosmos 2297 4.5 17:41:06 10° N 17:46:25 38° ENE 17:51:38 10° SE
Meteor 2-16 Rocket 4.4 17:40:43 10° S 17:46:43 69° E 17:52:46 10° NNE
Cosmos 921 Rocket 3.2 17:44:48 10° S 17:49:09 56° ESE 17:53:32 10° NNE
Lacrosse 5 2.0 17:45:37 10° NW 17:50:44 83° SW 17:55:49 10° SE
CARTOSAT-1 3.6 17:46:54 10° SSE 17:51:05 61° ENE 17:55:18 10° N
Cosmos 494 Rocket 4.1 17:52:46 10° S 17:57:40 51° ESE 18:02:36 10° NNE
Aureole 3 Rocket 4.1 17:55:08 10° N 17:59:33 42° E 18:05:34 10° SSE
CSL-04 Rocket 3.6 17:55:31 10° SSE 18:00:48 81° ENE 18:06:06 10° N
SL-16 R/B 3.3 17:59:16 10° SW 18:04:43 48° WNW 18:10:13 10° N
Meteor 1-26 Rocket 4.4 17:58:51 10° S 18:04:53 89° W 18:10:56 10° N
CSL-04 Debris 4.3 18:01:20 10° SSE 18:06:48 82° WSW 18:12:17 10° NNW
NOSS 3-1 (A) 4.4 17:58:57 10° NW 18:06:49 80° WSW 18:16:00 10° SSE
Cosmos 1603 4.4 18:02:54 10° SSE 18:07:45 31° ESE 18:12:42 10° NE
CZ-4C R/B 3.6 18:04:20 10° NNE 18:08:05 44° E 18:11:57 10° S
Okean-O 3.1 18:04:36 14° SE 18:08:07 42° ENE 18:12:16 10° N
Cosmos 1743 3.4 18:08:05 10° NNE 18:11:21 32° E 18:13:17 19° SE
SPOT 5 3.7 18:08:37 16° ESE 18:11:32 30° ENE 18:15:22 10° N
USA 186 3.3 18:09:24 10° SSW 18:12:17 34° W 18:15:17 10° NNW
Cosmos 1048 Rocket 4.1 18:09:08 10° S 18:14:07 51° ESE 18:19:05 10° NNE
Cosmos 2369 Rocket 2.5 18:11:30 10° N 18:16:56 50° ENE 18:20:53 18° SE
Cosmos 1656 Rocket 3.7 18:12:18 10° NNW 18:17:45 68° ENE 18:22:00 17° SSE
FALCON 9 R/B 2.6 18:16:24 10° W 18:20:32 74° S 18:33:44 10° E
IUS-1 SRM-2 4.4 18:06:54 10° W 18:21:25 32° SSW 18:24:35 17° SSE
Meteor 2-6 Rocket 4.2 18:16:44 10° S 18:22:16 63° E 18:27:41 10° NNE
Cosmos 2034 Rocket 4.1 18:16:08 10° N 18:22:23 83° W 18:28:41 10° S
OAO 2 Rocket 4.5 18:17:59 10° W 18:22:38 32° SSW 18:25:40 18° SSE
USA 229 DEB 4.3 18:15:26 10° NNW 18:22:53 55° NE 18:28:50 19° SE
Cosmos 44 3.3 18:18:15 10° NW 18:22:56 71° WSW 18:26:12 18° SSE
USA 229 4.4 18:15:33 10° NNW 18:22:59 55° NE 18:28:56 19° SE
MOS 1 4.4 18:21:35 16° SSE 18:26:02 62° ENE 18:31:36 10° N
Cosmos 1371 Rocket 4.2 18:25:05 10° NNW 18:30:26 73° WSW 18:34:51 15° S
Cosmos 2084 3.2 18:28:19 10° NW 18:32:04 69° WSW 18:34:06 26° SSE
Hubble Space Telescope 2.7 18:30:23 10° SSW 18:31:31 13° S 18:31:31 13° S
SeaSat 1 3.6 18:29:50 10° S 18:34:21 37° WSW 18:38:52 10° NW
Tsikada Rocket 4.2 18:29:30 10° SSW 18:35:40 74° W 18:41:56 10° N
Cosmos 1943 3.3 18:36:00 10° SSW 18:41:41 80° WNW 18:47:22 10° NNE
Cosmos 1536 4.0 18:38:54 10° NNE 18:42:07 24° ENE 18:42:34 24° E
IRS-1C Rocket 4.2 18:40:19 25° SE 18:43:18 61° ENE 18:48:30 10° N
OAO 1 4.5 18:38:36 10° WSW 18:44:02 67° S 18:47:54 19° E
IRS-1A Rocket 4.4 18:41:56 25° SE 18:45:10 60° ENE 18:50:37 10° N
Spot 2 Rocket 4.3 18:44:58 26° ESE 18:46:49 34° ENE 18:51:19 10° N
Cosmos 1842 Rocket 3.5 18:44:45 18° S 18:47:59 84° E 18:52:25 10° N
Cosmos 1726 2.5 18:46:16 10° N 18:49:00 35° ENE 18:49:00 35° ENE
Resurs 01 Rocket 3.6 18:46:19 10° SSW 18:49:57 25° W 18:53:37 10° NW
ARGOS Delta rocket 4.2 18:47:46 30° SE 18:49:58 52° ENE 18:54:39 10° N
Okean 3 Rocket 3.5 18:49:58 10° N 18:54:19 68° E 18:55:50 39° SSE
SPOT 3 Rocket 4.3 18:55:32 29° ESE 18:57:10 37° ENE 19:01:52 10° N
USA 276 3.2 18:57:38 10° NW 18:58:56 30° WNW 18:58:56 30° WNW
USA 281 4.4 18:56:38 19° E 18:59:51 29° NE 19:05:18 10° N
Okean O Rocket 3.7 18:56:47 10° SSW 19:00:19 23° W 19:03:52 10° NW
Meteor 1-27 Rocket 4.0 18:58:34 34° SE 19:00:24 46° E 19:05:39 10° NNE
ISS -2.5 18:57:24 10° NNW 19:00:29 32° NE 19:01:04 30° ENE
ATLAS 3B R/B 4.0 18:57:46 10° NW 19:04:48 38° WSW 19:10:34 14° S
Sich 1 4.0 19:04:11 10° NNE 19:08:04 30° ENE 19:08:10 30° E
MetOp-B 4.3 19:05:31 27° S 19:08:30 68° WSW 19:13:51 10° NNW
Ariane Rocket 3.2 19:08:13 40° SE 19:09:40 55° ENE 19:14:37 10° N
Molniya-1 3.4 19:10:01 56° SE 19:10:21 60° ESE 19:16:16 10° NE
GEOS 3 Rocket 3.4 19:15:07 10° NE 19:20:15 66° ESE 19:22:30 33° SSW
Terra 1.7 19:20:54 53° SSE 19:22:01 88° ENE 19:26:45 10° NNW
DELTA 2 R/B (1) 4.0 19:17:50 10° SW 19:22:03 40° S 19:22:03 40° S
MOS 1 Rocket 3.6 19:22:52 50° SE 19:23:58 64° ENE 19:29:12 10° N
Cosmos 1340 Rocket 2.8 19:28:03 67° ENE 19:28:03 67° ENE 19:31:42 10° NNE
Cosmos 1452 Rocket 3.5 19:24:36 10° NNW 19:29:51 76° WSW 19:31:09 51° S
Lacrosse 5 4.4 19:32:32 10° WSW 19:32:57 10° WSW 19:33:22 10° WSW
Cosmos 1743 Rocket 3.8 19:29:40 10° N 19:33:50 56° ENE 19:33:50 56° ENE
ERS-1 Rocket 3.3 19:32:32 41° SSW 19:34:04 59° W 19:39:02 10° NNW
Centaur D AC-29 3.4 19:29:55 10° WSW 19:35:30 48° SSE 20:07:51 10° E
Centaur D AC-29 3.4 19:29:55 10° WSW 19:35:31 48° SSE 20:07:51 10° E
Centaur D AC-29 3.4 19:29:55 10° WSW 19:35:31 48° SSE 20:07:50 10° E
Nadezhda 4 Rocket 3.9 19:36:46 45° S 19:38:51 83° E 19:45:07 10° N
Meteor 2-10 3.9 19:36:59 10° N 19:42:27 84° E 19:43:13 66° SSE
Cosmos 2279 Rocket 4.5 19:37:32 10° NNW 19:43:33 54° W 19:46:20 31° SSW
Cosmos 1408 Rocket 3.9 19:39:26 10° NNW 19:43:47 57° W 19:44:16 54° WSW
Cosmos 614 Rocket 3.8 19:45:56 72° SSE 19:46:26 81° ESE 19:51:39 10° NNE
Spot 1 4.2 19:45:39 10° N 19:49:45 66° WNW 19:49:53 65° W
Cosmos 1833 Rocket 4.2 19:53:47 22° ENE 19:53:47 22° ENE 19:56:32 10° NE
BREEZE-M DEB (TANK) 3.2 19:59:04 59° E 19:59:04 59° E 20:07:35 10° NE
Cosmos 1151 Rocket 3.3 20:00:27 63° WNW 20:00:27 63° WNW 20:04:29 10° N
Cosmos 2369 Rocket 4.1 19:56:39 10° WNW 20:00:29 19° W 20:02:41 15° SW
Meteor 1-11 Rocket 4.5 19:58:05 10° NNW 20:03:31 46° W 20:05:04 38° SW
Cosmos 1975 4.2 20:05:37 10° N 20:07:58 33° NNE 20:07:58 33° NNE
Cosmos 1302 Rocket 4.0 20:07:28 10° NNW 20:12:31 77° W 20:12:31 77° W
Cosmos 1992 Rocket 4.5 20:08:22 10° N 20:13:05 49° NE 20:13:05 49° NE
Cosmos 1656 4.3 20:11:31 10° N 20:16:41 42° ENE 20:16:41 42° ENE
Cosmos 2026 Rocket 3.8 20:17:40 73° S 20:18:21 89° E 20:24:38 10° N
NOSS 3-3 (A) 3.8 20:20:45 64° WSW 20:21:25 72° WNW 20:27:25 10° NNE
Cosmos 1627 Rocket 4.4 20:23:09 72° SSW 20:23:52 84° W 20:30:13 10° N
H-2A R/B 4.4 20:26:16 23° NE 20:26:16 23° NE 20:28:30 10° NNE
USA 59 Rocket 0.7 20:22:44 10° NNW 20:26:34 60° NNE 20:26:34 60° NNE
Lacrosse 4 Rocket 3.0 20:24:00 10° N 20:26:31 30° NNE 20:26:31 30° NNE
NOSS 2-1 (E) 4.2 20:24:47 10° NNW 20:28:35 62° NNE 20:28:35 62° NNE
IRIDIUM 104 4.4 20:24:07 10° N 20:28:54 72° NW 20:28:54 72° NW
Cosmos 1633 Rocket 4.2 20:31:30 10° N 20:34:27 42° N 20:34:27 42° N
NOSS 2-1 (D) 4.4 20:37:22 10° NNW 20:40:43 56° NW 20:40:43 56° NW
USA 281 3.5 20:43:30 51° WSW 20:43:59 52° WSW 20:50:24 10° NNW
Meteor 2-12 Rocket 4.5 20:45:05 69° ENE 20:45:05 69° ENE 20:50:46 10° NNE
Cosmos 1607 4.0 20:53:10 74° ENE 20:53:10 74° ENE 20:59:07 10° NNE
Cosmos 1697 Rocket 3.8 20:48:49 10° N 20:53:46 35° ENE 20:53:46 35° ENE
Cosmos 1553 Rocket 4.0 20:49:41 10° N 20:55:18 69° NE 20:55:18 69° NE
Cosmos 2285 Rocket 4.3 20:59:40 55° ENE 20:59:40 55° ENE 21:04:56 10° NNE
Cosmos 1980 Rocket 4.1 20:57:55 10° N 21:02:02 20° NE 21:02:54 19° ENE
ARIANE 5 R/B 4.3 21:12:44 29° NW 21:12:44 29° NW 21:15:03 10° NNW
Cosmos 2266 Rocket 4.1 21:27:55 71° NNE 21:27:55 71° NNE 21:33:26 10° N
Cosmos 1655 Rocket 4.3 21:31:01 58° ENE 21:31:01 58° ENE 21:36:33 10° NNE
Cosmos 1833 Rocket 3.8 21:35:26 36° WNW 21:35:35 36° WNW 21:40:45 10° N
ATLAS CENTAUR R/B 4.4 21:22:11 10° NW 21:36:00 75° NE 21:39:42 46° ESE
Cosmos 2082 Rocket 3.0 21:41:17 45° NE 21:41:17 45° NE 21:45:19 10° NNE
H-2A R/B 3.8 21:59:15 10° N 22:01:35 31° N 22:01:35 31° N
USA 267 3.5 22:08:16 10° NE 22:14:42 62° NW 22:15:41 56° WNW
NOSS 3-4 (A) 3.8 22:27:08 10° NW 22:34:22 77° WSW 22:34:26 77° SW
NOSS 3-4 (C) 3.8 22:27:13 10° NW 22:34:28 78° WSW 22:34:34 78° SW
Meteor 2-10 Rocket 4.3 22:31:21 10° NNW 22:35:52 51° NW 22:35:52 51° NW
Cosmos 1697 Rocket 4.4 22:32:59 10° NW 22:35:28 22° WNW 22:35:28 22° WNW
Cosmos 1980 Rocket 3.1 22:40:49 10° NNW 22:44:38 40° NW 22:44:38 40° NW
USA 234 4.3 22:41:08 10° ESE 22:47:11 41° NE 22:53:14 10° NNW
Cosmos 1953 4.5 22:48:30 10° N 22:50:16 24° NNE 22:50:16 24° NNE
DELTA 2 R/B (1) 4.1 22:57:05 56° NE 22:57:05 56° NE 23:01:40 10° E
Lacrosse 5 rocket 3.4 22:54:44 10° NNW 22:57:22 26° NNE 22:57:22 26° NNE
SJ 16-02 3.3 23:00:30 22° ENE 23:00:30 22° ENE 23:02:45 10° NE
Nadezhda 1 Rocket 4.2 22:54:46 10° N 23:01:06 61° E 23:01:43 58° ESE
COSMOS 2406 4.4 23:02:31 31° WNW 23:02:39 31° WNW 23:07:45 10° N
BREEZE-M R/B 3.5 23:07:43 64° ESE 23:07:43 64° ESE 23:16:27 10° NE
CZ-2D R/B 3.4 23:10:24 10° NE 23:15:11 31° E 23:15:34 31° ESE
Timation 1 Rocket 4.2 23:16:01 85° NE 23:16:01 85° NE 23:21:50 10° NNE
BREEZE-M DEB (TANK) 4.0 23:14:08 30° NW 23:16:16 80° NE 23:30:04 10° SE
Resurs 1-4 Rocket 3.1 23:15:30 10° NNE 23:20:20 36° E 23:20:31 36° ESE
SL-16 R/B 2.5 23:15:20 10° NNW 23:20:58 62° ENE 23:21:42 57° ESE
Cosmos 2082 Rocket 4.1 23:23:06 17° WNW 23:24:12 18° NW 23:27:59 10° NNW
Cosmos 1782 Rocket 4.2 23:30:16 10° N 23:33:39 51° NNE 23:33:39 51° NNE
Cosmos 1709 Rocket 3.8 23:35:29 72° S 23:36:12 89° W 23:42:36 10° N
Cosmos 2360 Rocket 3.3 23:33:30 10° N 23:38:51 41° ENE 23:42:47 17° SE
Cosmos 2237 4.1 23:41:25 10° NNW 23:46:56 68° W 23:46:56 68° W
CZ-2C R/B 3.1 23:49:50 37° SE 23:51:33 53° ENE 23:56:35 10° N
Meteor 1-24 Rocket 4.1 23:52:07 47° SSE 23:53:40 63° E 23:59:35 10° NNE
MOZ.5/SAFIR/RUBIN 5/SL-8 4.2 23:55:19 52° WNW 23:55:19 52° WNW 23:59:12 10° NNW
Tiangong 0.6 23:57:39 17° ENE 23:57:39 17° ENE 23:58:28 10° ENE
